COSMOS 2251 DEB, 37985

Orbit data source: Space-Track

COSMOS 2251 DEB, 37985 is space debris in LEO originally from a launch on Wed, 16 Jun 1993 UTC launched from the Plesetsk Missile And Space Complex (PKMTR). The debris from Iridium 33, an American commercial communications satellite, has been tracked extensively since its accidental collision with the defunct Russian satellite Cosmos 2251 in 2009. This event, occurring at high speed in low Earth orbit (LEO), generated thousands of pieces of space debris, significantly increasing the risk of further collisions. The Iridium 33 debris cloud has impacted space traffic management and orbital debris mitigation strategies, making it a subject of ongoing study in space situational awareness.

Loading next visibility...
Identifier
37985, 1993-036BQL
Orbit
LEO
Country
Flag of CISCIS
Related business
Manufacturer
Unknown
Mission
Spacecraft
Bus & Motor
Unknown
Mass
Unknown
Launch date (UTC)
1993-06-16 (33 years ago)
Launch vehicle
Unknown
Launch site
Plesetsk Missile And Space Complex (PKMTR)
Object type
Payload
Rocket body
Debris
Shape & HBR
Unknown shape, 0.1 m
Radar Cross Section
Small (<0.1 m²)

Expand to show TLE details & history
Last TLE update: 1 day ago

TLE from 1 day ago
0 COSMOS 2251 DEB
1 37985U 93036BQL 26237.03702504  .00000049  00000-0  26094-4 0  9992
2 37985  74.0262 157.1247 0022256 223.3821 136.5580 14.35547884685804
Epoch: 2026-08-25T00:53Z
TLE epoch observation values (Epoch: 2026-08-25T00:53:18.963Z)
Latitude
-0.00008°
Longitude
170.48553°
Altitude
787.431 km
Speed
7.454 km/s
True Right ascension
10h 28m 29s
True Declination
0° 00' 00"
Sunlit
Object was in daylight at epoch
Visualization orbit readout
Latitude
Unknown
Longitude
Unknown
Altitude
Unknown
Speed
Unknown
Apparent Right ascension
Unknown
Apparent Declination
Unknown
Sunlit
N/A
Visualization observer readout
Local Sidereal Time
23:41:08
Azimuth
Unknown
Elevation
Unknown
Doppler factor
Unknown
Orbital elements
Apogee altitude
786.782 km
Perigee altitude
754.961 km
Semi-major axis
7,149.009 km
Eccentricity
0.00223
Inclination
74.0262°
RAAN
157.1247°
Arg. of periapsis
223.3821°
True anomaly
136.73301°
Mean anomaly
136.558°
Eccentric anomaly
136.64554°
Mean motion
3.59066 °/min
Orbital period
100.26 mins
BSTAR
0.000026094
Loading maneuver chart data...
Computing Atmospheric mass density...
Loading historical data...
Loading historical data...
Loading historical data...
Loading historical data...
Loading historical data...
Loading historical data...
Loading historical data...

Documentation

Showing up to 5 results
|